Weather History for PAWG - March, 2012

Change the Weather History Date:

Tuesday, March 27, 2012

  Actual Average Record
Temperature  
Mean Temperature 44 °F -  
Max Temperature 50 °F 44 °F 50 °F (1990)
Min Temperature 37 °F 32 °F 22 °F (1967)
Degree Days  
Heating Degree Days 22    
Moisture  
Dew Point 30 °F    
Average Humidity 63    
Maximum Humidity 75    
Minimum Humidity 46    
Precipitation  
Precipitation 0.00 in - - ()
Sea Level Pressure  
Sea Level Pressure 29.55 in    
Wind  
Wind Speed 4 mph (North)    
Max Wind Speed 10 mph    
Max Gust Speed -    
Visibility 10 miles    
Events      
Averages and records for this station are not official NWS values.
T = Trace of Precipitation, MM = Missing Value Source: NWS Daily Summary

Daily Weather History Graph

Daily Weather History Graph

Search for Another Location

Airport or City:

Trip Planner

Search our weather history database for the weather conditions in past years. The results will help you decide how hot, cold, wet, or windy it might be!

Date:

Astronomy

Mar. 27, 2012 Rise Set
Actual Time 6:31 AM AKDT 7:19 PM AKDT
Civil Twilight 5:52 AM AKDT 7:57 PM AKDT
Nautical Twilight 5:06 AM AKDT 8:44 PM AKDT
Astronomical Twilight 4:16 AM AKDT 9:34 PM AKDT
Moon 8:08 AM AKDT 12:31 AM AKDT
Length of Visible Light 14h 04m
Length of Day
12h 48m
Waxing Crescent, 23% of the Moon is Illuminated
Mar 27
Waxing Crescent
Mar 30
First Quarter
Apr 6
Full
Apr 13
Last Quarter
Apr 20
New

Hourly Weather History & Observations

Time (AKDT) Temp. Windchill Dew Point Humidity Pressure Visibility Wind Dir Wind Speed Gust Speed Precip Events Conditions
12:16 AM 39.2 °F 35.9 °F 28.4 °F 65% 29.65 in 10.0 mi SSE 4.6 mph - N/A   Overcast
12:36 AM 39.2 °F - 28.4 °F 65% 29.65 in 10.0 mi Calm Calm - N/A   Overcast
12:56 AM 41.0 °F 38.0 °F 26.6 °F 57% 29.65 in 10.0 mi SE 4.6 mph - N/A   Overcast
1:16 AM 41.0 °F 37.1 °F 28.4 °F 61% 29.65 in 10.0 mi SE 5.8 mph - N/A   Overcast
1:36 AM 39.2 °F 34.2 °F 30.2 °F 70% 29.65 in 10.0 mi SE 6.9 mph - N/A   Overcast
1:56 AM 39.2 °F 35.0 °F 30.2 °F 70% 29.65 in 10.0 mi ESE 5.8 mph - N/A   Overcast
2:16 AM 41.0 °F 34.7 °F 28.4 °F 61% 29.64 in 10.0 mi East 10.4 mph - N/A   Overcast
2:36 AM 41.0 °F 35.8 °F 30.2 °F 65% 29.64 in 10.0 mi East 8.1 mph - N/A   Overcast
2:56 AM 41.0 °F 36.4 °F 30.2 °F 65% 29.63 in 10.0 mi ESE 6.9 mph - N/A   Overcast
3:16 AM 41.0 °F 36.4 °F 30.2 °F 65% 29.63 in 10.0 mi East 6.9 mph - N/A   Overcast
3:36 AM 39.2 °F 35.0 °F 30.2 °F 70% 29.63 in 10.0 mi NNE 5.8 mph - N/A   Overcast
3:56 AM 39.2 °F 37.0 °F 30.2 °F 70% 29.62 in 10.0 mi NNW 3.5 mph - N/A   Overcast
4:16 AM 39.2 °F 35.9 °F 30.2 °F 70% 29.61 in 10.0 mi NW 4.6 mph - N/A   Overcast
4:36 AM 39.2 °F 35.9 °F 30.2 °F 70% 29.61 in 10.0 mi NNW 4.6 mph - N/A   Overcast
4:56 AM 39.2 °F - 32.0 °F 75% 29.60 in 10.0 mi Calm Calm - N/A   Overcast
5:16 AM 39.2 °F - 30.2 °F 70% 29.60 in 10.0 mi Calm Calm - N/A   Overcast
5:36 AM 39.2 °F - 30.2 °F 70% 29.59 in 10.0 mi Calm Calm - N/A   Overcast
5:56 AM 39.2 °F - 30.2 °F 70% 29.58 in 10.0 mi Calm Calm - N/A   Mostly Cloudy
6:16 AM 37.4 °F 34.9 °F 30.2 °F 75% 29.57 in 10.0 mi East 3.5 mph - N/A   Mostly Cloudy
6:36 AM 37.4 °F 34.9 °F 30.2 °F 75% 29.56 in 10.0 mi SE 3.5 mph - N/A   Mostly Cloudy
6:56 AM 39.2 °F 33.0 °F 30.2 °F 70% 29.55 in 10.0 mi ESE 9.2 mph - N/A   Mostly Cloudy
7:16 AM 37.4 °F 30.3 °F 30.2 °F 75% 29.55 in 10.0 mi ENE 10.4 mph - N/A   Mostly Cloudy
7:36 AM 37.4 °F - 30.2 °F 75% 29.54 in 10.0 mi Calm Calm - N/A   Mostly Cloudy
7:56 AM 37.4 °F - 30.2 °F 75% 29.54 in 10.0 mi Calm Calm - N/A   Mostly Cloudy
8:16 AM 37.4 °F - 30.2 °F 75% 29.54 in 10.0 mi Calm Calm - N/A   Mostly Cloudy
8:36 AM 39.2 °F - 30.2 °F 70% 29.53 in 10.0 mi Calm Calm - N/A   Mostly Cloudy
8:56 AM 39.2 °F - 30.2 °F 70% 29.52 in 10.0 mi Calm Calm - N/A   Mostly Cloudy
9:16 AM 39.2 °F 37.0 °F 30.2 °F 70% 29.52 in 10.0 mi WNW 3.5 mph - N/A   Mostly Cloudy
9:36 AM 39.2 °F 35.9 °F 30.2 °F 70% 29.52 in 10.0 mi NW 4.6 mph - N/A   Mostly Cloudy
9:56 AM 39.2 °F - 30.2 °F 70% 29.52 in 10.0 mi Calm Calm - N/A   Mostly Cloudy
10:16 AM 41.0 °F - 30.2 °F 65% 29.52 in 10.0 mi Calm Calm - N/A   Mostly Cloudy
10:36 AM 42.8 °F 39.3 °F 30.2 °F 61% 29.52 in 10.0 mi NNW 5.8 mph - N/A   Mostly Cloudy
10:56 AM 42.8 °F 40.1 °F 30.2 °F 61% 29.52 in 10.0 mi NNW 4.6 mph - N/A   Scattered Clouds
11:16 AM 42.8 °F 40.1 °F 28.4 °F 57% 29.51 in 10.0 mi NNW 4.6 mph - N/A   Scattered Clouds
11:36 AM 44.6 °F 43.1 °F 30.2 °F 57% 29.51 in 10.0 mi North 3.5 mph - N/A   Scattered Clouds
11:56 AM 46.4 °F 44.3 °F 30.2 °F 53% 29.51 in 10.0 mi NW 4.6 mph - N/A   Scattered Clouds
12:16 PM 46.4 °F 45.2 °F 30.2 °F 53% 29.51 in 10.0 mi North 3.5 mph - N/A   Scattered Clouds
12:36 PM 46.4 °F 44.3 °F 30.2 °F 53% 29.51 in 10.0 mi NNE 4.6 mph - N/A   Scattered Clouds
12:56 PM 48.2 °F - 30.2 °F 50% 29.51 in 10.0 mi Calm Calm - N/A   Scattered Clouds
1:16 PM 48.2 °F - 28.4 °F 46% 29.51 in 10.0 mi Calm Calm - N/A   Scattered Clouds
1:36 PM 50.0 °F - 30.2 °F 47% 29.51 in 10.0 mi NW 6.9 mph - N/A   Scattered Clouds
1:56 PM 50.0 °F - 30.2 °F 47% 29.51 in 10.0 mi WNW 5.8 mph - N/A   Scattered Clouds
2:16 PM 48.2 °F - 30.2 °F 50% 29.51 in 10.0 mi NW 6.9 mph - N/A   Scattered Clouds
2:36 PM 48.2 °F - 30.2 °F 50% 29.52 in 10.0 mi WSW 10.4 mph - N/A   Scattered Clouds
2:56 PM 48.2 °F - 32.0 °F 54% 29.53 in 10.0 mi West 10.4 mph - N/A   Scattered Clouds
3:16 PM 50.0 °F - 32.0 °F 50% 29.53 in 10.0 mi East 3.5 mph - N/A   Scattered Clouds
3:36 PM 46.4 °F 45.2 °F 33.8 °F 62% 29.54 in 10.0 mi NNW 3.5 mph - N/A   Scattered Clouds
3:56 PM 46.4 °F - 33.8 °F 62% 29.54 in 10.0 mi Calm Calm - N/A   Overcast
4:16 PM 46.4 °F 43.5 °F 35.6 °F 66% 29.53 in 10.0 mi North 5.8 mph - N/A   Overcast
4:36 PM 44.6 °F 41.4 °F 33.8 °F 66% 29.52 in 10.0 mi North 5.8 mph - N/A   Overcast
4:56 PM 48.2 °F - 30.2 °F 50% 29.51 in 10.0 mi NNW 5.8 mph - N/A   Mostly Cloudy
5:16 PM 48.2 °F - 30.2 °F 50% 29.51 in 10.0 mi NNW 6.9 mph - N/A   Mostly Cloudy
5:36 PM 46.4 °F 42.9 °F 33.8 °F 62% 29.50 in 10.0 mi NW 6.9 mph - N/A   Mostly Cloudy
5:56 PM 46.4 °F 44.3 °F 30.2 °F 53% 29.49 in 10.0 mi WNW 4.6 mph - N/A   Scattered Clouds
6:16 PM 44.6 °F 43.1 °F 30.2 °F 57% 29.48 in 10.0 mi NNW 3.5 mph - N/A   Scattered Clouds
6:36 PM 44.6 °F - 32.0 °F 61% 29.48 in 10.0 mi Calm Calm - N/A   Scattered Clouds
6:56 PM 44.6 °F - 30.2 °F 57% 29.47 in 10.0 mi Calm Calm - N/A   Scattered Clouds
7:16 PM 42.8 °F 40.1 °F 30.2 °F 61% 29.46 in 10.0 mi SW 4.6 mph - N/A   Scattered Clouds
7:36 PM 42.8 °F 40.1 °F 30.2 °F 61% 29.46 in 10.0 mi West 4.6 mph - N/A   Scattered Clouds
7:56 PM 42.8 °F - 30.2 °F 61% 29.46 in 10.0 mi Calm Calm - N/A   Scattered Clouds
8:16 PM 42.8 °F - 30.2 °F 61% 29.45 in 10.0 mi Calm Calm - N/A   Scattered Clouds
8:36 PM 42.8 °F 38.6 °F 30.2 °F 61% 29.44 in 10.0 mi SSE 6.9 mph - N/A   Scattered Clouds
8:56 PM 42.8 °F 37.0 °F 32.0 °F 66% 29.44 in 10.0 mi SE 10.4 mph - N/A   Scattered Clouds
9:16 PM 41.0 °F 37.1 °F 33.8 °F 76% 29.44 in 10.0 mi East 5.8 mph - N/A   Scattered Clouds
9:36 PM 41.0 °F 36.4 °F 33.8 °F 76% 29.44 in 10.0 mi SE 6.9 mph - N/A   Scattered Clouds
9:56 PM 41.0 °F 35.8 °F 33.8 °F 76% 29.43 in 10.0 mi ESE 8.1 mph - N/A   Overcast
10:16 PM 41.0 °F 36.4 °F 33.8 °F 76% 29.42 in 10.0 mi ESE 6.9 mph - N/A   Overcast
10:36 PM 42.8 °F 38.0 °F 33.8 °F 70% 29.41 in 10.0 mi East 8.1 mph - N/A   Overcast
10:56 PM 41.0 °F 37.1 °F 33.8 °F 76% 29.41 in 10.0 mi ESE 5.8 mph - N/A   Overcast
11:16 PM 39.2 °F 37.0 °F 33.8 °F 81% 29.40 in 10.0 mi East 3.5 mph - N/A   Mostly Cloudy
11:36 PM 39.2 °F 37.0 °F 33.8 °F 81% 29.39 in 10.0 mi NW 3.5 mph - N/A   Overcast
11:56 PM 41.0 °F - 33.8 °F 76% 29.38 in 10.0 mi Calm Calm - N/A   Overcast